Location: Unspecified
(40.7945°N, 111.1337°W)
Time: 21:50:40
(UTC-06:00)

Vanguard 1 - Pass Details

Date: 25 June 2019
Orbit: 653 x 3830 km, 34.3° (Epoch: 17 July)

Event Time Altitude Azimuth Distance (km) Brightness Sun altitude
Rises 07:26:37 0° 275° (W) 6,577 13.7 14.9°
Reaches altitude 10° 07:31:50 10° 271° (W) 5,043 13.2 15.9°
Maximum altitude 07:43:53 48° 203° (SSW) 1,894 11.5 18.1°
Drops below altitude 10° 07:50:36 10° 130° (SE) 2,867 13.0 19.3°
Sets 07:52:47 0° 124° (SE) 3,583 13.6 19.7°
